Regional Weather Roundup
Issued by NWS Portland, ME

Current Version | Previous Version | Text Only | Print | Product List | Glossary Off
Versions: 1 2 3 4 5 6 7 8 9 10 11 12 13 14 15 16 17 18 19 20 21 22 23 24 25 26 27 28 29 30 31 32 33 34 35 36 37 38 39 40 41 42 43 44 45 46 47 48 49 50
149 ASUS41 KGYX 250005 RWRGYX WEATHER ROUNDUP FOR MAINE AND NEW HAMPSHIRE NATIONAL WEATHER SERVICE GRAY ME 800 PM EDT SUN SEP 24 2017 MEZ002-005-006-010-012-015-018-020-021-024-026-027-029-250100- MAINE CITY SKY/WX TMP DP RH WIND PRES REMARKS PORTLAND CLEAR 71 63 75 S3 30.02R 6HR MIN TEMP: 71; 6HR MAX TEMP: 84; SANFORD CLEAR 70 67 90 CALM 30.03R BAR HARBOR PTCLDY 67 61 81 S3 30.02R WISCASSET PTCLDY 71 63 75 S3 30.03R 6HR MIN TEMP: 71; 6HR MAX TEMP: 86; ROCKLAND MOCLDY 68 62 81 W7 30.02R FRYEBURG CLEAR 71 71 100 CALM 30.03R 6HR MIN TEMP: 71; 6HR MAX TEMP: 89; AUGUSTA MOCLDY 74 65 73 CALM 30.03R 6HR MIN TEMP: 74; 6HR MAX TEMP: 87; WATERVILLE PTCLDY 76 69 79 S5 30.00R BANGOR PTCLDY 75 64 68 S7 30.01R 6HR MIN TEMP: 75; 6HR MAX TEMP: 89; GREENVILLE N/A 73 64 73 NW5 30.05R 6HR MIN TEMP: 73; 6HR MAX TEMP: 84; MILLINOCKET CLEAR 72 67 84 CALM 30.01R 6HR MIN TEMP: 72; 6HR MAX TEMP: 87; HOULTON CLOUDY 74 71 91 E3 29.98R 6HR MIN TEMP: 73; 6HR MAX TEMP: 87; 6HR PCP: 0.02; PRESQUE ISLE MOCLDY 74 66 76 N7 30.02R 6HR MIN TEMP: 74; 6HR MAX TEMP: 84; FRENCHVILLE CLEAR 67 62 84 N7 30.04R 6HR MIN TEMP: 67; 6HR MAX TEMP: 80; 6HR PCP: 0.01; CARIBOU CLOUDY 74 65 73 N7 30.01R 6HR MIN TEMP: 74; 6HR MAX TEMP: 85; $$ NHZ002-005-008-009-011-012-014-250100- NEW HAMPSHIRE CITY SKY/WX TMP DP RH WIND PRES REMARKS PORTSMOUTH CLEAR 72 65 79 CALM 30.01R ROCHESTER CLEAR 73 65 75 CALM 30.02R 6HR MIN TEMP: 73; 6HR MAX TEMP: 89; NASHUA CLEAR 74 70 87 CALM 30.03R MANCHESTER CLEAR 80 69 69 CALM 30.01R 6HR MIN TEMP: 80; 6HR MAX TEMP: 90; CONCORD CLEAR 74 69 85 CALM 30.03R 6HR MIN TEMP: 74; 6HR MAX TEMP: 91; LACONIA CLEAR 74 69 85 CALM 30.04R PLYMOUTH FAIR 71 67 88 CALM 30.04R BERLIN CLEAR 71 65 81 CALM 30.08R 6HR MIN TEMP: 71; 6HR MAX TEMP: 88; WHITEFIELD CLEAR 71 66 84 CALM 30.08R 6HR MIN TEMP: 71; 6HR MAX TEMP: 88; JAFFREY CLEAR 72 70 93 CALM 30.08R 6HR MIN TEMP: 72; 6HR MAX TEMP: 90; KEENE CLEAR 73 69 87 CALM 30.05R LEBANON CLEAR 72 69 90 CALM 30.05R 6HR MIN TEMP: 71; 6HR MAX TEMP: 92; MT WASHINGTON PTCLDY 59 57 94 NW25 N/A 6HR MIN TEMP: 58; 6HR MAX TEMP: 65; $$ VTZ005-007-008-250100- VERMONT CITY SKY/WX TMP DP RH WIND PRES REMARKS ST JOHNSBURY N/A 75 71 87 MISG 30.05R MONTPELIER CLEAR 70 68 93 CALM 30.12R BURLINGTON CLEAR 77 71 82 CALM 30.05R $$ MAZ007-012-024-CTZ003-RIZ002-NYZ038-NYZ072-250100- SOUTHERN NEW ENGLAND AND NY CITY SKY/WX TMP DP RH WIND PRES REMARKS BOSTON CLEAR 72 63 73 CALM 30.02S WORCESTER CLEAR 77 64 64 CALM 30.08R NANTUCKET PTCLDY 62 62 100 N5 30.03S FOG PROVIDENCE CLEAR 71 61 70 S5 30.04R HARTFORD PTCLDY 76 70 82 NW5 30.02R ALBANY CLEAR 76 67 73 CALM 30.04R NEW YORK CITY PTCLDY 79 60 52 S7 30.03R $$ ANZ081-ANZ082-ANZ150-NHZ014-MEZ023>029-250100- COASTAL MARINE OBSERVATIONS STATION/POSITION TIME TEMP WIND PRES WAVE AIR SEA DIR/SP/G HT/PER (UTC) (F) (DEG/KT/KT) (MB) (FT/S) MOUNT DESERT ROC 2300 62 210/ 14/ 14 1016.4R MATINICUS ROCK 2300 62 210/ 13/ 13 1016.1R ISLE OF SHOALS 2300 73 200/ 15/ 15 1016.0R JEFFREYS LEDGE 2306 63 N/A 4/12 GEORGES BANK BUO 2250 72 72 1014.7 6/13 $$ .............KEY.............. WCI - WIND CHILL TC - TEMPERATURE IN CELSIUS VSB - VISIBILITY IN MILES HX - HEAT INDEX FAIR- INDICATES FEW OR NO CLOUDS BELOW 12,000 FT, WITH NO SIGNIFICANT WEATHER AND/OR OBSTRUCTIONS TO VISIBILITY.

USA.gov is the U.S. government's official web portal to all federal, state and local government web resources and services.